Location: Ford County Road and Bridge Department
(37.7686°N, 99.9762°W)
Time: 02:44:55
(UTC+00:00)

Cosmos 1953 - Pass Details

Date: 18 January 2020
Orbit: 539 x 558 km, 82.5° (Epoch: 19 February)

Event Time Altitude Azimuth Distance (km) Brightness Sun altitude
Rises 11:38:30 0° 164° (SSE) 2,711 6.1 -26.3°
Reaches altitude 10° 11:40:49 10° 154° (SSE) 1,825 5.3 -25.8°
Maximum altitude 11:44:24 32° 91° (E) 970 4.1 -25.1°
Drops below altitude 10° 11:48:01 10° 28° (NNE) 1,846 5.2 -24.4°
Sets 11:50:21 0° 18° (NNE) 2,748 6.0 -24.0°
